Weather History for Bolton Field, OH

Change the Weather History Date:

Thursday, January 3, 2013

  Actual Average Record
Temperature  
Mean Temperature 16 °F -  
Max Temperature 30 °F 37 °F 62 °F (1997)
Min Temperature 2 °F 25 °F -2 °F (2014)
Degree Days  
Heating Degree Days 49    
Moisture  
Dew Point 11 °F    
Average Humidity 81    
Maximum Humidity 93    
Minimum Humidity 51    
Precipitation  
Precipitation 0.00 in - - ()
Sea Level Pressure  
Sea Level Pressure 30.22 in    
Wind  
Wind Speed 5 mph (SW)    
Max Wind Speed 15 mph    
Max Gust Speed 17 mph    
Visibility 7 miles    
Events Fog    
Averages and records for this station are not official NWS values.
T = Trace of Precipitation, MM = Missing Value Source: NWS Daily Summary

Daily Weather History Graph

Daily Weather History Graph

Search for Another Location

Airport:

Trip Planner

Search our weather history database for the weather conditions in past years. The results will help you decide how hot, cold, wet, or windy it might be!

Date:

Astronomy

Jan. 03, 2013 Rise Set
Actual Time 7:54 AM EST 5:20 PM EST
Civil Twilight 7:24 AM EST 5:50 PM EST
Nautical Twilight 6:50 AM EST 6:24 PM EST
Astronomical Twilight 6:17 AM EST 6:57 PM EST
Moon 11:54 PM EST (1/3) 11:05 AM EST (1/3)
Length of Visible Light 10h 26m
Length of Day
9h 25m
Waning Gibbous, 65% of the Moon is Illuminated
Jan 3
Waning Gibbous
Jan 4
Last Quarter
Jan 11
New
Jan 18
First Quarter
Jan 26
Full

Hourly Weather History & Observations

Time (EST) Temp. Windchill Dew Point Humidity Pressure Visibility Wind Dir Wind Speed Gust Speed Precip Events Conditions
12:15 AM 8.1 °F -0.5 °F 5.4 °F 89% 30.20 in 7.0 mi SSW 4.6 mph - N/A   Clear
12:35 AM 9.5 °F 1.2 °F 7.0 °F 90% 30.20 in 7.0 mi SSW 4.6 mph - N/A   Clear
12:55 AM 9.0 °F 2.4 °F 6.4 °F 89% 30.20 in 7.0 mi SW 3.5 mph - N/A   Clear
1:15 AM 7.9 °F 1.2 °F 5.0 °F 88% 30.20 in 7.0 mi WSW 3.5 mph - N/A   Clear
1:35 AM 6.3 °F -0.7 °F 3.4 °F 88% 30.20 in 7.0 mi WSW 3.5 mph - N/A   Clear
1:55 AM 7.7 °F - 5.0 °F 89% 30.21 in 7.0 mi Calm Calm - N/A   Clear
2:15 AM 8.2 °F - 5.9 °F 90% 30.20 in 7.0 mi Calm Calm - N/A   Clear
2:35 AM 5.5 °F - 2.5 °F 87% 30.20 in 4.0 mi Calm Calm - N/A   Clear
2:55 AM 7.9 °F - 5.5 °F 90% 30.20 in 4.0 mi North - - N/A   Clear
3:15 AM 6.6 °F - 3.9 °F 89% 30.20 in 7.0 mi North - - N/A   Clear
3:35 AM 3.6 °F - 0.3 °F 86% 30.19 in 4.0 mi North - - N/A   Clear
3:55 AM 7.2 °F - 4.6 °F 89% 30.19 in 3.0 mi Calm Calm - N/A   Clear
4:15 AM 7.3 °F - 4.5 °F 88% 30.19 in 2.5 mi Calm Calm - N/A   Clear
4:35 AM 6.4 °F - 3.4 °F 87% 30.19 in 0.5 mi Calm Calm - N/A Fog Light Freezing Fog
4:55 AM 6.6 °F - 3.6 °F 87% 30.19 in 0.5 mi North - - N/A Fog Light Freezing Fog
5:15 AM 7.2 °F - 4.1 °F 87% 30.19 in 3.0 mi North - - N/A   Clear
5:35 AM 5.5 °F -1.5 °F 2.7 °F 88% 30.19 in 0.8 mi SW 3.5 mph - N/A   Mist
5:55 AM 2.1 °F - -1.8 °F 83% 30.19 in 0.5 mi North - - N/A Fog Light Freezing Fog
6:15 AM 5.9 °F -3.0 °F 3.0 °F 88% 30.19 in 3.0 mi SSW 4.6 mph - N/A   Clear
6:35 AM 6.4 °F - 3.4 °F 87% 30.20 in 3.0 mi North - - N/A   Clear
6:55 AM 4.8 °F - 1.6 °F 86% 30.21 in 4.0 mi North - - N/A   Clear
7:15 AM 7.7 °F 1.0 °F 4.8 °F 88% 30.21 in 5.0 mi SSW 3.5 mph - N/A   Clear
7:50 AM 6.8 °F - 3.2 °F 85% 30.21 in 7.0 mi Calm Calm - N/A   Clear
8:40 AM 6.8 °F -0.1 °F 3.2 °F 85% 30.21 in 7.0 mi South 3.5 mph - N/A   Clear
9:47 AM 12.2 °F - 8.6 °F 85% 30.22 in 7.0 mi Calm Calm - N/A   Clear
10:50 AM 19.4 °F 10.4 °F 17.6 °F 93% 30.21 in 10.0 mi SW 6.9 mph - N/A   Clear
11:50 AM 24.8 °F 15.3 °F 12.2 °F 59% 30.20 in 10.0 mi SW 9.2 mph - N/A   Clear
12:50 PM 28.4 °F 17.0 °F 12.2 °F 51% 30.18 in 10.0 mi SW 15.0 mph - N/A   Clear
1:50 PM 28.4 °F 17.0 °F 14.0 °F 55% 30.17 in 10.0 mi SW 15.0 mph - N/A   Clear
2:52 PM 30.2 °F 20.8 °F 17.6 °F 60% 30.19 in 10.0 mi WSW 11.5 mph - N/A   Clear
3:45 PM 30.2 °F 21.9 °F 19.4 °F 64% 30.20 in 10.0 mi WSW 9.2 mph - N/A   Clear
4:50 PM 28.4 °F 20.4 °F 19.4 °F 69% 30.22 in 10.0 mi WSW 8.1 mph - N/A   Mostly Cloudy
5:50 PM 26.6 °F 16.8 °F 21.2 °F 80% 30.24 in 10.0 mi SW 10.4 mph - N/A   Overcast
6:45 PM 28.4 °F 19.1 °F 21.2 °F 74% 30.25 in 10.0 mi SW 10.4 mph - N/A   Overcast
8:15 PM 27.7 °F 19.6 °F 21.7 °F 78% 30.25 in 10.0 mi SW 8.1 mph - N/A   Overcast
8:35 PM 27.5 °F 19.3 °F 21.9 °F 80% 30.26 in 10.0 mi SW 8.1 mph - N/A   Overcast
8:55 PM 27.5 °F 20.2 °F 21.9 °F 80% 30.26 in 10.0 mi WSW 6.9 mph - N/A   Overcast
9:15 PM 28.0 °F 20.8 °F 22.1 °F 78% 30.26 in 10.0 mi WSW 6.9 mph - N/A   Overcast
9:35 PM 28.8 °F 19.0 °F 22.1 °F 76% 30.26 in 10.0 mi West 11.5 mph 16.1 mph N/A   Overcast
9:55 PM 29.1 °F 23.0 °F 22.1 °F 75% 30.27 in 10.0 mi West 5.8 mph - N/A   Overcast
10:15 PM 29.1 °F 20.0 °F 21.2 °F 72% 30.27 in 10.0 mi West 10.4 mph 17.3 mph N/A   Overcast
10:35 PM 28.9 °F 21.1 °F 21.6 °F 74% 30.27 in 10.0 mi West 8.1 mph - N/A   Overcast
10:55 PM 28.9 °F 21.9 °F 21.7 °F 74% 30.27 in 10.0 mi West 6.9 mph - N/A   Overcast
11:15 PM 28.6 °F 20.7 °F 21.9 °F 76% 30.27 in 10.0 mi WSW 8.1 mph - N/A   Overcast
11:35 PM 28.8 °F 21.7 °F 22.1 °F 76% 30.27 in 10.0 mi WSW 6.9 mph - N/A   Overcast
11:55 PM 28.6 °F 21.5 °F 22.5 °F 78% 30.26 in 10.0 mi WSW 6.9 mph - N/A   Overcast